Weather Roundup
Issued by NWS Springfield, MO

Home | Current Version | Previous Version | Graphics & Text | Print | Product List | Glossary On
Versions: 1 2 3 4 5 6 7 8 9 10 11 12 13 14 15 16 17 18 19 20 21 22 23 24 25 26 27 28 29 30 31 32 33 34 35 36 37 38 39 40 41 42 43 44 45 46 47 48 49 50
000
NZUS99 KSGF 281307
HRRSGF

HOURLY WEATHER
NATIONAL WEATHER SERVICE SPRINGFIELD MO
800 AM CDT TUE MAR 28 2017

......SGF CWA......

CITY           SKY/WX    TMP DP  RH WIND       PRES   REMARKS
SPRINGFIELD    CLOUDY    51  49  92 NE3       30.02R
JOPLIN         CLOUDY    51  48  89 E5        30.02R
WEST PLAINS    CLOUDY    53  51  93 NE5       30.04R
ROLLA          CLOUDY    50  49  96 NE9       30.04R
OSAGE BEACH    CLOUDY   N/A N/A N/A E7        30.05R HAZE
BRANSON        CLOUDY    50  50 100 CALM      30.03R

......SURROUNDING SGF CWA......

CITY           SKY/WX    TMP DP  RH WIND       PRES   REMARKS
CHANUTE        CLOUDY    51  47  86 E5        30.03R
PARSONS        CLOUDY    52  47  83 VRB5      30.04R
COFFEYVILLE    CLOUDY    52  47  83 E5        30.03R
EMPORIA        CLOUDY    49  47  93 E6        30.03R
GROVE OK       CLOUDY    52  50  93 NE3       30.03R
ROGERS AR      CLOUDY    51  48  89 E10       30.02R
SILOAM SPRINGS CLOUDY    52  46  82 E5        30.01R
HARRISON AR    CLOUDY    52  50  93 CALM      30.03R
NEAR YELLVILLE CLOUDY    54  48  82 CALM      30.01R

......KANSAS AND MISSOURI......

CITY           SKY/WX    TMP DP  RH WIND       PRES   REMARKS
KANSAS CTY INT DRIZZLE   48  46  93 NE7       30.06R
DOWNTOWN KC    CLOUDY    50  46  86 NE6       30.05R
COLUMBIA       CLOUDY    50  49  96 E5        30.05R FOG
SEDALIA        FOG       50  50 100 NE7       30.05R VSB 1/4
ST JOSEPH      CLOUDY    48  46  93 NE3       30.07R
ST LOUIS       CLOUDY    53  49  86 N6        30.06S
SPIRIT OF STL  CLOUDY    53  49  86 N7        30.05S
KIRKSVILLE     CLOUDY    48  47  96 NE7       30.06R FOG
WICHITA        CLOUDY    50  45  83 E9        30.02R
TOPEKA         CLOUDY    45  45 100 CALM      30.05R
OLATHE         CLOUDY    47  47 100 NE7       30.04R

......TENNESSEE......

CITY           SKY/WX    TMP DP  RH WIND       PRES   REMARKS
MEMPHIS        CLOUDY    60  58  92 NE9       30.00R FOG
NASHVILLE      CLOUDY    57  54  89 NW6       30.00R

......ARKANSAS.......

CITY           SKY/WX    TMP DP  RH WIND       PRES   REMARKS
FAYETTEVILLE   PTCLDY    49  48  97 CALM      30.01R
FT SMITH       FOG       46  45  96 E5        30.01R VSB<1/4
LITTLE ROCK    PTSUNNY   55  53  93 N8        30.00R

......OKLAHOMA.......

CITY           SKY/WX    TMP DP  RH WIND       PRES   REMARKS
TULSA          CLOUDY    53  49  86 NE9       29.99R
PONCA CITY     CLOUDY    51  47  86 NE3       30.01R
MCALESTER      MOCLDY    50  47  89 NE3       29.98R FOG
OKLAHOMA CITY  CLOUDY    49  46  90 E9        29.97R

......IOWA............

CITY           SKY/WX    TMP DP  RH WIND       PRES   REMARKS
DES MOINES     CLOUDY    48  41  76 NE3       30.08R
QUAD CITIES    CLOUDY    49  44  83 N3        30.08R

......ILLINOIS........

CITY           SKY/WX    TMP DP  RH WIND       PRES   REMARKS
QUINCY         CLOUDY    49  47  93 NE5       30.05S FOG
CHICAGO        CLOUDY    41  35  79 NE12      30.08R




USA.gov is the U.S. government's official web portal to all federal, state and local government web resources and services.